{"data":{"norad_id":39199,"intl_designator":"2013-034A","name":"IRNSS-1A","alt_names":[],"object_type":"PAYLOAD","status":"ACTIVE","operator":null,"country":"IND","launch_date":"2013-07-01","launch_site_code":"SRILR","launch_vehicle":null,"mission":null,"orbit_class":"UNKNOWN","rcs_meters":3.4785,"size_class":null,"mass_kg":null,"dimensions":null,"purposes":["comms","nav"],"wikipedia_slug":null,"has_3d_model":false,"image_url":null,"decayed_at":null,"tle_current":{"epoch":"2026-09-18T21:38:24.809856Z","epoch_age_seconds":156206,"freshness":"FRESH","line1":"1 39199U 13034A   26261.90167604  .00000081  00000+0  00000+0 0  9999","line2":"2 39199  35.9275  62.5314 0020137 178.5932 136.3764  1.00276500 48309","mean_motion":1.002765,"eccentricity":0.0020137,"inclination_deg":35.9275,"raan_deg":62.5314,"arg_perigee_deg":178.5932,"mean_anomaly_deg":136.3764,"bstar":0,"rev_number":4830,"period_min":1436.0293787677,"perigee_km":35700.368768149,"apogee_km":35870.177686498,"semimajor_km":42163.410227323,"source":"CELESTRAK","updated_at":"2026-09-20T09:00:45.771102Z"}}}